Flag for Germany Weather past 2 weeks in Neu-Isenburg, Hesse, Germany

Now
60 °F

Passing clouds.


Feels Like: 60 °F
Forecast: 53 / 67 °F
Wind: 1 mph from South

Location: Frankfurt / M-Flughafen

Current Time: Sep 20, 2014 at 4:16:01 AM

Latest Report: Sep 20, 2014 at 4:00 AM


Visibility: 16 mi

Pressure: 29.95 "Hg

Humidity: 95%

Dew point: 59 °F

Location of Neu-IsenburgLocation

Historic Weather in Neu-Isenburg — Graph

°F

Neu-Isenburg temperature yesterday

Maximum temperature yesterday: 74 °F (at 6:00 PM)
Minimum temperature yesterday: 61 °F (at 5:00 AM)
Average temperature yesterday: 67 °F

Past Weeks' High & Low Weather Summary

 TemperatureHumidityPressure
High79 °F (Sep 6, 4:00 PM)97% (Sep 6, 7:00 AM)30.19 "Hg (Sep 6, 7:00 AM)
Low47 °F (Sep 11, 4:00 AM)43% (Sep 9, 6:00 PM)29.85 "Hg (Sep 6, 6:00 PM)
Average64 °F77%30.00 "Hg
* Reported Sep 5 3:00 AM — Sep 20 3:00 AM, Neu-Isenburg, Weather by CustomWeather, © 2014

Note: Actual official high and low records may vary slightly from our data, if they occured in-between our weather recording intervals... More about our weather records

Advertising

Neu-Isenburg weather history for previous 24 hours

 ConditionsComfort  
Time TempWeatherWind HumidityBarometerVisibility
3:00 AM
Sep 20
62 °FPassing clouds.1 mph95%29.95 "Hg19 mi
2:00 AM62 °FPassing clouds.1 mph93%29.95 "Hg19 mi
1:00 AM64 °FPassing clouds.3 mph92%29.95 "Hg19 mi
12:00 AM63 °FPassing clouds.1 mph92%29.94 "Hg19 mi
10:00 PM
Sep 19
68 °FPassing clouds.2 mph84%29.93 "Hg25 mi
9:00 PM71 °FPassing clouds.2 mph77%29.92 "Hg28 mi
8:00 PM72 °FPassing clouds.2 mph77%29.90 "Hg28 mi
7:00 PM74 °FOvercast.1 mph67%29.90 "Hg31 mi
6:00 PM74 °FOvercast.2 mph66%29.89 "Hg31 mi
4:00 PM74 °FPartly sunny.5 mph65%29.90 "Hg28 mi
3:00 PM73 °FPartly sunny.3 mph68%29.91 "Hg25 mi
2:00 PM71 °FPartly sunny.2 mph73%29.92 "Hg25 mi
1:00 PM69 °FOvercast.3 mph79%29.92 "Hg14 mi
12:00 PM69 °FOvercast.5 mph78%29.92 "Hg12 mi
10:00 AM67 °FPartly sunny.3 mph83%29.91 "Hg9 mi
9:00 AM64 °FPartly sunny.3 mph91%29.90 "Hg9 mi
8:00 AM62 °FPartly sunny.2 mph92%29.90 "Hg9 mi
7:00 AM63 °FPassing clouds.2 mph92%29.89 "Hg9 mi
6:00 AM63 °FLow clouds.2 mph93%29.89 "Hg11 mi
5:00 AM61 °FPassing clouds.1 mph95%29.88 "Hg12 mi
4:00 AM61 °FPassing clouds.1 mph94%29.88 "Hg16 mi
Weather by CustomWeather, © 2014

See weather overviewHow to use our weather pages